When you browse on this site, cookies collect data to enhance your experience and personalize the content and advertising you see.
Visit our Privacy Policy to learn more. By continuing to use the site, you agree to this use of cookies and data.
  • en Belgique
  • Liste des pays
  • À 7 jours
  • Température de l'eau
  • Carte satellitaire
  • Carte météo
  • Widgets météo
  • user-avatar
    Se connecter

    Météo par heure à Viktorovka

    Ce jour, 16 Juin, Dimanche

    Heure Température Précipitation Vent Pression Humidité
    00:00 +18°C° 0 mm 4 m/s 746 mmHg 94%
    01:00 +17°C° 0 mm 3 m/s 746 mmHg 94%
    02:00 +17°C° 0 mm 3 m/s 746 mmHg 94%
    03:00 +17°C° 0 mm 2 m/s 746 mmHg 96%
    04:00 +17°C° 0 mm 2 m/s 746 mmHg 95%
    05:00 +17°C° 0 mm 3 m/s 745 mmHg 94%
    06:00 +17°C° 0 mm 3 m/s 745 mmHg 93%
    07:00 +18°C° 0 mm 3 m/s 745 mmHg 91%
    08:00 +18°C° 0 mm 3 m/s 746 mmHg 89%
    09:00 +19°C° 0 mm 3 m/s 746 mmHg 87%
    10:00 +20°C° 0 mm 2 m/s 746 mmHg 81%
    11:00 +21°C° 0 mm 2 m/s 746 mmHg 75%
    12:00 +23°C° 0 mm 2 m/s 746 mmHg 69%
    13:00 +23°C° 0.1 mm 2 m/s 746 mmHg 67%
    14:00 +24°C° 0.1 mm 1 m/s 746 mmHg 65%
    15:00 +25°C° 0.1 mm 1 m/s 746 mmHg 62%
    16:00 +24°C° 0.3 mm 1 m/s 746 mmHg 66%
    17:00 +24°C° 0.3 mm 2 m/s 746 mmHg 69%
    18:00 +24°C° 0.3 mm 2 m/s 746 mmHg 72%
    19:00 +21°C° 0 mm 2 m/s 746 mmHg 77%
    20:00 +20°C° 0 mm 2 m/s 746 mmHg 83%
    21:00 +19°C° 0 mm 1 m/s 747 mmHg 88%
    22:00 +19°C° 0 mm 1 m/s 747 mmHg 89%
    23:00 +18°C° 0 mm 1 m/s 747 mmHg 90%

    Demain, 17 Juin, Lundi

    Heure Température Précipitation Vent Pression Humidité
    00:00 +16°C° 0 mm 1 m/s 747 mmHg 91%
    01:00 +16°C° 0 mm 1 m/s 747 mmHg 92%
    02:00 +16°C° 0 mm 1 m/s 747 mmHg 93%
    03:00 +15°C° 0 mm 1 m/s 748 mmHg 94%
    04:00 +16°C° 0 mm 1 m/s 748 mmHg 93%
    05:00 +16°C° 0 mm 1 m/s 747 mmHg 92%
    06:00 +18°C° 0 mm 1 m/s 747 mmHg 91%
    07:00 +19°C° 0 mm 1 m/s 748 mmHg 85%
    08:00 +21°C° 0 mm 1 m/s 748 mmHg 79%
    09:00 +22°C° 0 mm 1 m/s 748 mmHg 74%
    10:00 +23°C° 0 mm 1 m/s 748 mmHg 68%
    11:00 +24°C° 0 mm 1 m/s 748 mmHg 63%
    12:00 +25°C° 0 mm 1 m/s 748 mmHg 58%
    13:00 +25°C° 0.1 mm 1 m/s 748 mmHg 57%
    14:00 +26°C° 0.1 mm 1 m/s 748 mmHg 56%
    15:00 +26°C° 0.1 mm 1 m/s 748 mmHg 55%
    16:00 +26°C° 0.1 mm 1 m/s 747 mmHg 59%
    17:00 +25°C° 0.1 mm 2 m/s 747 mmHg 63%
    18:00 +25°C° 0.1 mm 2 m/s 747 mmHg 67%
    19:00 +24°C° 0 mm 1 m/s 747 mmHg 71%
    20:00 +22°C° 0 mm 1 m/s 747 mmHg 75%
    21:00 +20°C° 0 mm 1 m/s 747 mmHg 79%
    22:00 +20°C° 0 mm 1 m/s 747 mmHg 81%
    23:00 +19°C° 0 mm 1 m/s 747 mmHg 82%

    Après-demain, 18 Juin, Mardi

    Heure Température Précipitation Vent Pression Humidité
    00:00 +17°C° 0 mm 0 m/s 747 mmHg 83%
    01:00 +18°C° 0 mm 1 m/s 747 mmHg 84%
    02:00 +18°C° 0 mm 1 m/s 747 mmHg 86%
    03:00 +18°C° 0 mm 1 m/s 747 mmHg 87%
    04:00 +18°C° 0 mm 1 m/s 747 mmHg 86%
    05:00 +19°C° 0 mm 1 m/s 747 mmHg 85%
    06:00 +20°C° 0 mm 1 m/s 747 mmHg 84%
    07:00 +21°C° 0 mm 1 m/s 747 mmHg 81%
    08:00 +23°C° 0 mm 2 m/s 747 mmHg 77%
    09:00 +24°C° 0 mm 2 m/s 747 mmHg 73%
    10:00 +25°C° 0 mm 2 m/s 747 mmHg 69%
    11:00 +26°C° 0 mm 3 m/s 747 mmHg 65%
    12:00 +27°C° 0 mm 3 m/s 746 mmHg 62%
    13:00 +27°C° 0.3 mm 3 m/s 746 mmHg 65%
    14:00 +27°C° 0.3 mm 3 m/s 746 mmHg 68%
    15:00 +27°C° 0.3 mm 4 m/s 745 mmHg 71%
    16:00 +26°C° 0.6 mm 4 m/s 745 mmHg 74%
    17:00 +26°C° 0.6 mm 3 m/s 745 mmHg 78%
    18:00 +25°C° 0.6 mm 3 m/s 745 mmHg 81%
    19:00 +24°C° 0.1 mm 3 m/s 745 mmHg 85%
    20:00 +22°C° 0.1 mm 3 m/s 745 mmHg 89%
    21:00 +20°C° 0.1 mm 2 m/s 745 mmHg 94%
    22:00 +20°C° 0 mm 3 m/s 746 mmHg 94%
    23:00 +19°C° 0 mm 3 m/s 746 mmHg 94%

    19 Juin, Mercredi

    Heure Température Précipitation Vent Pression Humidité
    00:00 +19°C° 0 mm 3 m/s 746 mmHg 94%
    01:00 +18°C° 0 mm 3 m/s 746 mmHg 95%
    02:00 +18°C° 0 mm 3 m/s 746 mmHg 95%
    03:00 +17°C° 0 mm 3 m/s 746 mmHg 95%
    04:00 +17°C° 0 mm 3 m/s 747 mmHg 93%
    05:00 +18°C° 0 mm 3 m/s 747 mmHg 91%
    06:00 +18°C° 0 mm 3 m/s 747 mmHg 90%
    07:00 +19°C° 0 mm 3 m/s 747 mmHg 84%
    08:00 +21°C° 0 mm 3 m/s 748 mmHg 79%
    09:00 +24°C° 0 mm 3 m/s 748 mmHg 74%
    10:00 +25°C° 0 mm 3 m/s 748 mmHg 68%
    11:00 +26°C° 0 mm 4 m/s 748 mmHg 61%
    12:00 +27°C° 0 mm 4 m/s 748 mmHg 55%
    13:00 +27°C° 0 mm 4 m/s 748 mmHg 55%
    14:00 +27°C° 0 mm 3 m/s 748 mmHg 56%
    15:00 +27°C° 0 mm 3 m/s 748 mmHg 56%
    16:00 +27°C° 0 mm 3 m/s 748 mmHg 60%
    17:00 +26°C° 0 mm 3 m/s 748 mmHg 64%
    18:00 +26°C° 0 mm 3 m/s 748 mmHg 67%
    19:00 +24°C° 0 mm 3 m/s 748 mmHg 71%
    20:00 +21°C° 0 mm 3 m/s 748 mmHg 74%
    21:00 +20°C° 0 mm 2 m/s 748 mmHg 78%
    22:00 +19°C° 0 mm 2 m/s 749 mmHg 80%
    23:00 +18°C° 0 mm 2 m/s 749 mmHg 81%

    20 Juin, Jeudi

    Heure Température Précipitation Vent Pression Humidité
    00:00 +18°C° 0 mm 1 m/s 749 mmHg 83%
    01:00 +18°C° 0 mm 1 m/s 749 mmHg 85%
    02:00 +16°C° 0 mm 1 m/s 749 mmHg 87%
    03:00 +16°C° 0 mm 2 m/s 749 mmHg 89%
    04:00 +17°C° 0 mm 2 m/s 749 mmHg 88%
    05:00 +17°C° 0 mm 2 m/s 750 mmHg 86%
    06:00 +18°C° 0 mm 2 m/s 750 mmHg 85%
    07:00 +19°C° 0 mm 2 m/s 750 mmHg 79%
    08:00 +21°C° 0 mm 2 m/s 750 mmHg 73%
    09:00 +24°C° 0 mm 2 m/s 750 mmHg 67%
    10:00 +25°C° 0 mm 2 m/s 750 mmHg 62%
    11:00 +26°C° 0 mm 3 m/s 750 mmHg 58%
    12:00 +27°C° 0 mm 3 m/s 750 mmHg 53%
    13:00 +28°C° 0 mm 3 m/s 750 mmHg 52%
    14:00 +28°C° 0 mm 3 m/s 750 mmHg 51%
    15:00 +28°C° 0 mm 3 m/s 750 mmHg 50%
    16:00 +28°C° 0 mm 2 m/s 750 mmHg 54%
    17:00 +28°C° 0 mm 2 m/s 750 mmHg 58%
    18:00 +27°C° 0 mm 2 m/s 750 mmHg 63%
    19:00 +26°C° 0 mm 2 m/s 750 mmHg 66%
    20:00 +24°C° 0 mm 2 m/s 750 mmHg 70%
    21:00 +21°C° 0 mm 2 m/s 750 mmHg 73%
    22:00 +20°C° 0 mm 2 m/s 750 mmHg 76%
    23:00 +19°C° 0 mm 2 m/s 750 mmHg 79%

    21 Juin, Vendredi

    Heure Température Précipitation Vent Pression Humidité
    00:00 +19°C° 0 mm 2 m/s 750 mmHg 82%
    01:00 +19°C° 0 mm 1 m/s 750 mmHg 83%
    02:00 +19°C° 0 mm 1 m/s 751 mmHg 84%
    03:00 +19°C° 0 mm 1 m/s 751 mmHg 85%
    04:00 +19°C° 0 mm 1 m/s 751 mmHg 84%
    05:00 +20°C° 0 mm 1 m/s 751 mmHg 83%
    06:00 +20°C° 0 mm 1 m/s 751 mmHg 82%
    07:00 +22°C° 0 mm 1 m/s 751 mmHg 77%
    08:00 +24°C° 0 mm 2 m/s 751 mmHg 71%
    09:00 +25°C° 0 mm 2 m/s 751 mmHg 66%
    10:00 +26°C° 0 mm 2 m/s 751 mmHg 61%
    11:00 +27°C° 0 mm 2 m/s 751 mmHg 57%
    12:00 +28°C° 0 mm 2 m/s 751 mmHg 52%
    13:00 +28°C° 0 mm 2 m/s 751 mmHg 51%
    14:00 +29°C° 0 mm 2 m/s 751 mmHg 50%
    15:00 +29°C° 0 mm 2 m/s 751 mmHg 49%
    16:00 +29°C° 0 mm 1 m/s 751 mmHg 52%
    17:00 +29°C° 0 mm 1 m/s 751 mmHg 54%
    18:00 +29°C° 0 mm 1 m/s 750 mmHg 57%
    19:00 +27°C° 0 mm 1 m/s 751 mmHg 60%
    20:00 +25°C° 0 mm 1 m/s 751 mmHg 63%
    21:00 +23°C° 0 mm 1 m/s 751 mmHg 66%
    22:00 +22°C° 0 mm 1 m/s 751 mmHg 69%
    23:00 +21°C° 0 mm 1 m/s 751 mmHg 73%
    Voir plus